Weather History for Rawlins, WY

Change the Weather History Date:

Monday, September 2, 2013

  Actual Average Record
Temperature  
Mean Temperature 73 °F 61 °F  
Max Temperature 87 °F 77 °F 89 °F (1995)
Min Temperature 58 °F 45 °F 33 °F (1961)
Degree Days  
Heating Degree Days 0 5  
Month to date heating degree days 0 9  
Since 1 July heating degree days 8 102  
Cooling Degree Days 8 1  
Month to date cooling degree days 13 2  
Year to date cooling degree days 335 183  
Growing Degree Days 23 (Base 50)    
Moisture  
Dew Point 47 °F    
Average Humidity 45    
Maximum Humidity 67    
Minimum Humidity 23    
Precipitation  
Precipitation 0.00 in 0.03 in 0.37 in (1961)
Month to date precipitation 0.00 0.06  
Year to date precipitation 3.78 6.61  
Sea Level Pressure  
Sea Level Pressure 29.91 in    
Wind  
Wind Speed 10 mph (SW)    
Max Wind Speed 30 mph    
Max Gust Speed 38 mph    
Visibility 10 miles    
Events      
T = Trace of Precipitation, MM = Missing Value Source: NWS Daily Summary

Daily Weather History Graph

Daily Weather History Graph

Search for Another Location

Airport:

Trip Planner

Search our weather history database for the weather conditions in past years. The results will help you decide how hot, cold, wet, or windy it might be!

Date:

Astronomy

Sep. 02, 2013 Rise Set
Actual Time 6:35 AM MDT 7:39 PM MDT
Civil Twilight 6:07 AM MDT 8:08 PM MDT
Nautical Twilight 5:33 AM MDT 8:42 PM MDT
Astronomical Twilight 4:57 AM MDT 9:17 PM MDT
Moon 3:54 AM MDT (9/2) 5:56 PM MDT (9/2)
Length of Visible Light 14h 01m
Length of Day
13h 04m
Waning Crescent, 7% of the Moon is Illuminated
Sep 2
Waning Crescent
Sep 5
New
Sep 12
First Quarter
Sep 19
Full
Sep 26
Last Quarter

Hourly Weather History & Observations

Time (MDT) Temp. Dew Point Humidity Pressure Visibility Wind Dir Wind Speed Gust Speed Precip Events Conditions
12:53 AM 66.9 °F 46.0 °F 47% 29.90 in 10.0 mi East 4.6 mph - N/A   Clear
1:53 AM 62.1 °F 45.0 °F 53% 29.91 in 10.0 mi ENE 5.8 mph - N/A   Clear
2:53 AM 60.1 °F 44.1 °F 55% 29.92 in 10.0 mi Calm Calm - N/A   Scattered Clouds
3:53 AM 63.0 °F 45.0 °F 52% 29.90 in 10.0 mi Calm Calm - N/A   Overcast
4:53 AM 63.0 °F 45.0 °F 52% 29.91 in 10.0 mi Calm Calm - N/A   Mostly Cloudy
5:53 AM 62.1 °F 44.1 °F 52% 29.92 in 10.0 mi Calm Calm - N/A   Clear
6:53 AM 62.1 °F 43.0 °F 50% 29.94 in 10.0 mi Variable 3.5 mph - N/A   Clear
7:53 AM 68.0 °F 45.0 °F 43% 29.95 in 10.0 mi South 3.5 mph - N/A   Partly Cloudy
8:53 AM 73.9 °F 48.0 °F 40% 29.94 in 10.0 mi South 11.5 mph - N/A   Clear
9:53 AM 77.0 °F 48.9 °F 37% 29.94 in 10.0 mi WSW 8.1 mph - N/A   Clear
10:53 AM 81.0 °F 46.9 °F 30% 29.93 in 10.0 mi SW 11.5 mph 20.7 mph N/A   Mostly Cloudy
11:53 AM 84.0 °F 46.9 °F 27% 29.91 in 10.0 mi SW 19.6 mph 27.6 mph N/A   Mostly Cloudy
12:53 PM 86.0 °F 46.0 °F 25% 29.88 in 10.0 mi SSW 21.9 mph 31.1 mph N/A   Mostly Cloudy
1:53 PM 82.0 °F 45.0 °F 27% 29.90 in 10.0 mi SW 18.4 mph 28.8 mph N/A   Partly Cloudy
2:53 PM 86.0 °F 46.0 °F 25% 29.86 in 10.0 mi SW 24.2 mph 32.2 mph N/A   Partly Cloudy
3:53 PM 84.9 °F 43.0 °F 23% 29.84 in 10.0 mi SW 21.9 mph 29.9 mph N/A   Clear
4:53 PM 82.9 °F 46.9 °F 28% 29.84 in 10.0 mi WSW 16.1 mph 23.0 mph N/A   Partly Cloudy
5:53 PM 82.0 °F 46.9 °F 29% 29.86 in 10.0 mi SW 26.5 mph 34.5 mph N/A   Partly Cloudy
6:53 PM 78.1 °F 45.0 °F 31% 29.86 in 10.0 mi WSW 16.1 mph 28.8 mph N/A   Clear
7:15 PM 73.4 °F 51.8 °F 47% 30.17 in 10.0 mi WNW 16.1 mph - N/A   Clear
7:53 PM 71.1 °F 51.1 °F 49% 29.88 in 10.0 mi NW 10.4 mph - N/A   Clear
8:53 PM 68.0 °F 51.1 °F 55% 29.90 in 10.0 mi NW 8.1 mph - N/A   Clear
9:53 PM 66.0 °F 50.0 °F 56% 29.91 in 10.0 mi SSW 5.8 mph - N/A   Clear
10:53 PM 64.0 °F 51.1 °F 63% 29.92 in 10.0 mi WSW 3.5 mph - N/A   Clear
11:53 PM 57.9 °F 46.9 °F 67% 29.93 in 10.0 mi Calm Calm - N/A   Clear